Weather History for Middletown, PA

Change the Weather History Date:

Saturday, February 16, 2013

  Actual Average Record
Temperature  
Mean Temperature 33 °F 33 °F  
Max Temperature 36 °F 41 °F 75 °F (1954)
Min Temperature 30 °F 25 °F 0 °F (1905)
Degree Days  
Heating Degree Days 32 32  
Month to date heating degree days 543 537  
Since 1 July heating degree days 3410 3626  
Cooling Degree Days 0 0  
Month to date cooling degree days 0 0  
Year to date cooling degree days 0 0  
Moisture  
Dew Point 24 °F    
Average Humidity 74    
Maximum Humidity 100    
Minimum Humidity 47    
Precipitation  
Precipitation T in 0.08 in 1.25 in (2003)
Month to date precipitation 0.84 1.32  
Year to date precipitation 4.05 4.20  
Snow  
Snow T in - - ()
Month to date snowfall 2.5  
Since 1 July snowfall 12.3  
Snow Depth 0.00 in    
Sea Level Pressure  
Sea Level Pressure 29.94 in    
Wind  
Wind Speed 6 mph (NNW)    
Max Wind Speed 12 mph    
Max Gust Speed 16 mph    
Visibility 8 miles    
Events Fog , Snow    
T = Trace of Precipitation, MM = Missing Value Source: NWS Daily Summary

Daily Weather History Graph

Daily Weather History Graph

Search for Another Location

Airport:

Trip Planner

Search our weather history database for the weather conditions in past years. The results will help you decide how hot, cold, wet, or windy it might be!

Date:

Astronomy

Feb. 16, 2013 Rise Set
Actual Time 6:58 AM EST 5:44 PM EST
Civil Twilight 6:30 AM EST 6:11 PM EST
Nautical Twilight 5:59 AM EST 6:43 PM EST
Astronomical Twilight 5:27 AM EST 7:15 PM EST
Moon 10:09 AM EST (2/16) No Moon Set
Length of Visible Light 11h 41m
Length of Day
10h 45m
Waxing Crescent, 39% of the Moon is Illuminated
Feb 16
Waxing Crescent
Feb 17
First Quarter
Feb 25
Full
Mar 4
Last Quarter
Mar 11
New

Hourly Weather History & Observations

Time (EST) Temp. Windchill Dew Point Humidity Pressure Visibility Wind Dir Wind Speed Gust Speed Precip Events Conditions
12:56 AM 35.1 °F 31.0 °F 33.1 °F 92% 30.00 in 6.0 mi SSW 4.6 mph - N/A   Overcast
1:31 AM 33.8 °F - 32.0 °F 93% 29.98 in 6.0 mi Calm Calm - N/A   Mostly Cloudy
1:56 AM 33.1 °F - 30.9 °F 92% 29.99 in 3.0 mi Calm Calm - N/A   Scattered Clouds
2:08 AM 33.8 °F - 30.2 °F 87% 29.97 in 2.5 mi Calm Calm - N/A   Partly Cloudy
2:44 AM 32.0 °F - 32.0 °F 100% 29.96 in 1.5 mi Calm Calm - N/A   Mostly Cloudy
2:56 AM 32.0 °F - 32.0 °F 100% 29.97 in 0.5 mi Calm Calm - N/A Fog Fog
2:59 AM 32.0 °F - 32.0 °F 100% 29.97 in 0.5 mi Calm Calm - N/A Fog Fog
3:56 AM 32.0 °F 26.4 °F 32.0 °F 100% 29.97 in 0.2 mi WNW 5.8 mph - N/A Fog Fog
4:56 AM 32.0 °F 28.7 °F 32.0 °F 100% 29.97 in 3.0 mi WNW 3.5 mph - N/A   Mostly Cloudy
5:11 AM 30.2 °F 26.7 °F 30.2 °F 100% 29.96 in 5.0 mi WNW 3.5 mph - N/A   Mostly Cloudy
5:56 AM 32.0 °F 24.8 °F 30.2 °F 93% 29.97 in 9.0 mi NW 8.1 mph - N/A   Overcast
6:56 AM 32.0 °F 25.6 °F 28.0 °F 85% 29.99 in 10.0 mi NW 6.9 mph - N/A   Overcast
7:56 AM 32.0 °F 24.8 °F 26.1 °F 79% 29.99 in 10.0 mi NNW 8.1 mph - N/A   Overcast
8:56 AM 32.0 °F 24.2 °F 25.0 °F 75% 29.99 in 10.0 mi NNW 9.2 mph - N/A   Overcast
9:56 AM 32.0 °F 26.4 °F 24.1 °F 73% 29.98 in 9.0 mi North 5.8 mph - 0.00 in Snow Light Snow
10:56 AM 34.0 °F 26.6 °F 24.1 °F 67% 29.97 in 10.0 mi North 9.2 mph - 0.00 in   Overcast
11:56 AM 35.1 °F 28.6 °F 21.9 °F 59% 29.96 in 10.0 mi NNE 8.1 mph - N/A   Overcast
12:56 PM 34.0 °F 26.6 °F 21.0 °F 59% 29.93 in 10.0 mi North 9.2 mph - N/A   Overcast
1:56 PM 35.1 °F 28.6 °F 19.9 °F 54% 29.91 in 10.0 mi North 8.1 mph - N/A   Overcast
2:56 PM 35.1 °F 27.9 °F 19.0 °F 52% 29.89 in 10.0 mi North 9.2 mph - N/A   Overcast
3:56 PM 34.0 °F 28.0 °F 19.0 °F 54% 29.89 in 10.0 mi North 6.9 mph - N/A   Overcast
4:56 PM 33.1 °F 28.7 °F 19.0 °F 56% 29.90 in 10.0 mi NE 4.6 mph - N/A   Overcast
5:56 PM 33.1 °F 30.0 °F 18.0 °F 54% 29.90 in 10.0 mi North 3.5 mph - N/A   Overcast
6:56 PM 32.0 °F 28.7 °F 18.0 °F 56% 29.89 in 10.0 mi North 3.5 mph - N/A   Overcast
7:56 PM 30.9 °F 27.5 °F 18.0 °F 59% 29.88 in 10.0 mi North 3.5 mph - N/A   Overcast
8:56 PM 30.9 °F 25.2 °F 18.0 °F 59% 29.87 in 10.0 mi NNW 5.8 mph - N/A   Overcast
9:56 PM 30.9 °F 23.5 °F 14.0 °F 50% 29.87 in 10.0 mi North 8.1 mph - N/A   Overcast
10:56 PM 30.0 °F 21.7 °F 12.0 °F 47% 29.86 in 10.0 mi North 9.2 mph - N/A   Overcast
11:56 PM 30.0 °F 21.1 °F 12.0 °F 47% 29.85 in 10.0 mi North 10.4 mph - N/A   Overcast